Showing default

QIANFAN-98, 66040

Orbit data source: Space-Track

QIANFAN-98, 66040 is a Chinese payload satellite in LEO that was launched on Fri, 17 Oct 2025 UTC via a CHANG ZHENG 6A launch vehicle from the Taiyaun Space Center, China (TSC). Payload-class satellites include a variety of spacecraft equipped with specific instruments for various scientific and technological missions. These include communications satellites like Starlink; space stations such as the ISS; scientific satellites like the Hubble; Earth observation satellites from companies like Planet Labs, Umbra, and HawkEye 360; GPS; miniature CubeSats for education and research; and military/defense satellites.

Loading next visibility...
Identifier
66040, 2025-233H
Orbit
LEO
Country
Flag of CNCN / PRC
Related business
Manufacturer
SECM
Mission
Operational Commercial Communications
Bus & Motor
QIANFAN, Unknown motor
Mass
267 kg wet, ~267 kg dry
Launch date (UTC)
2025-10-17 (7 months ago)
Launch vehicle
CHANG ZHENG 6A
Launch site
Taiyaun Space Center, China (TSC)
Object type
Payload
Rocket body
Debris
Shape & HBR
Box + 1 Pan, 14.5 m
Radar Cross Section
13.200 m²

Expand to show TLE details & history
Last TLE update: 7 hours ago

TLE from 7 hours ago
0 QIANFAN-98
1 66040U 25233H   26130.16778866  .00000132  00000-0  18537-3 0  9995
2 66040  89.0014  46.7590 0001826  76.5958 283.5397 13.51006537 28196
Epoch: 2026-05-10T04:01Z
TLE epoch observation values (Epoch: 2026-05-10T04:01:36.940Z)
Latitude
0.00003°
Longitude
118.38033°
Altitude
1,071.193 km
Speed
7.317 km/s
True Right ascension
03h 07m 02s
True Declination
0° 00' 00"
Sunlit
Object was in daylight at epoch
Visualization orbit readout
Latitude
Unknown
Longitude
Unknown
Altitude
Unknown
Speed
Unknown
Apparent Right ascension
Unknown
Apparent Declination
Unknown
Sunlit
N/A
Visualization observer readout
Local Sidereal Time
19:44:06
Azimuth
Unknown
Elevation
Unknown
Doppler factor
Unknown
Orbital elements
Apogee altitude
1,066.968 km
Perigee altitude
1,064.249 km
Semi-major axis
7,443.746 km
Eccentricity
0.00018
Inclination
89.0014°
RAAN
46.759°
Arg. of periapsis
76.5958°
True anomaly
283.51936°
Mean anomaly
283.5397°
Eccentric anomaly
283.52953°
Mean motion
3.37953 °/min
Orbital period
106.52 mins
BSTAR
0.00018537
Loading maneuver chart data...
Computing Atmospheric mass density...
Loading historical data...
Loading historical data...
Loading historical data...
Loading historical data...
Loading historical data...
Loading historical data...
Loading historical data...

Documentation

Showing up to 5 results
|